Regional Weather Roundup
Issued by NWS

Home | Current Version | Previous Version | Text Only | Print | Product List | Glossary Off
Versions: 1 2 3 4 5 6 7 8 9 10 11 12 13 14 15 16 17 18 19 20 21 22 23 24 25 26 27 28 29 30 31 32 33 34 35 36 37 38 39 40 41 42 43 44 45 46 47 48 49 50

000
ASUS45 KPSR 250010
RWRAZ

ARIZONA HOURLY REGIONAL WEATHER ROUNDUP
NATIONAL WEATHER SERVICE PHOENIX AZ
500 PM MST WED MAY 24 2017

NOTE: FAIR INDICATES FEW OR NO CLOUDS BELOW 12,000 FEET WITH NO
SIGNIFICANT WEATHER AND/OR OBSTRUCTIONS TO VISIBILITY.

AZZ001>003-036-250100-
NORTHWEST ARIZONA

CITY           SKY/WX    TMP DP  RH WIND       PRES   REMARKS
BULLHEAD CITY  PTSUNNY  106  12   3 S15G22    29.49F
KINGMAN        PTSUNNY   95  27   9 S26G36    29.71F
6HR MIN TEMP:  93; 6HR MAX TEMP:  98;

$$

AZZ004>008-015-016-018-250100-
NORTH CENTRAL ARIZONA

CITY           SKY/WX    TMP DP  RH WIND       PRES   REMARKS
GRAND CANYON   MOSUNNY   80  23  12 SW25G37   29.92F
6HR MIN TEMP:  78; 6HR MAX TEMP:  83;

WILLIAMS       SUNNY     79  23  12 W22G33    29.96F
PRESCOTT       SUNNY     86  23  10 SW20G36   29.86F
6HR MIN TEMP:  84; 6HR MAX TEMP:  89;

FLAGSTAFF      SUNNY     77  20  12 W18G39    29.97F
6HR MIN TEMP:  74; 6HR MAX TEMP:  79;

PAYSON         SUNNY     86  21   9 SW22G28   29.93S
PAGE           SUNNY     92  22   8 SW9       29.65F
6HR MIN TEMP:  79; 6HR MAX TEMP:  94;

$$

AZZ009>014-017-250100-
NORTHEAST ARIZONA

CITY           SKY/WX    TMP DP  RH WIND       PRES   REMARKS
WINSLOW        SUNNY     90  20   7 SW25G36   29.81F
6HR MIN TEMP:  86; 6HR MAX TEMP:  94;

SAINT JOHNS    SUNNY     86  13   6 W21G31    29.85F
6HR MIN TEMP:  82; 6HR MAX TEMP:  90;

WINDOW ROCK    SUNNY     82  21  10 W16G26    29.91F
6HR MIN TEMP:  77; 6HR MAX TEMP:  83;

SHOW LOW       SUNNY     77  16  10 SW21G31   29.97F
$$

AZZ540-542>544-546-548-250100-
GREATER PHOENIX AREA

CITY           SKY/WX    TMP DP  RH WIND       PRES   REMARKS
PHOENIX        PTSUNNY  105  24   6 W17G24    29.57F
6HR MIN TEMP:  95; 6HR MAX TEMP: 108;

BUCKEYE        PTSUNNY  104  27   6 SW14G24   29.58F
GLENDALE       PTSUNNY  106  21   5 SW13      29.59F
LUKE AFB       PTSUNNY  104  25   6 SW16      29.57F
6HR MIN TEMP:  96; 6HR MAX TEMP: 107;

DEER VALLEY    PTSUNNY  102  22   6 SW17G24   29.60F
6HR MIN TEMP:  94; 6HR MAX TEMP: 104;

SCOTTSDALE     MOSUNNY  102  24   6 SW6G18    29.62F
6HR MIN TEMP:  94; 6HR MAX TEMP: 105;

MESA-FALCON    MOSUNNY  N/A N/A N/A MISG      29.61F
MESA-GATEWAY   MOSUNNY  102  28   7 W17G23    29.61F
CHANDLER       SUNNY    104  25   6 SW17G28   29.59F
$$

AZZ539-553-250100-
SOUTHWEST MARICOPA COUNTY AND PINAL COUNTY

CITY           SKY/WX    TMP DP  RH WIND       PRES   REMARKS
CASA GRANDE    MOSUNNY  103  27   7 W18G25    29.61F
6HR MIN TEMP:  96; 6HR MAX TEMP: 105;

GILA BEND      MOSUNNY  106  21   5 SW17G26   29.57F
6HR MIN TEMP: 101; 6HR MAX TEMP: 109;

$$

AZZ503-504-507>509-250100-
SOUTHEAST ARIZONA

CITY           SKY/WX    TMP DP  RH WIND       PRES   REMARKS
TUCSON         SUNNY    101  18   5 W10       29.73F
6HR MIN TEMP:  94; 6HR MAX TEMP: 103;

DAVIS-MONTHAN  SUNNY    101  19   5 W14G22    29.72F
6HR MIN TEMP:  93; 6HR MAX TEMP: 101;

RYAN FIELD     SUNNY    102  21   5 W14G23    29.71F
NOGALES        SUNNY     96  16   5 SW21      29.84F
6HR MIN TEMP:  91; 6HR MAX TEMP:  99;

SIERRA VISTA   SUNNY     93  12   5 W16G22    29.89F
6HR MIN TEMP:  89; 6HR MAX TEMP:  95;

DOUGLAS        SUNNY     96  12   4 SW15G30   29.82F
6HR MIN TEMP:  89; 6HR MAX TEMP:  98;

SAFFORD        SUNNY     99  18   5 NW18G30   29.70F
6HR MIN TEMP:  90; 6HR MAX TEMP: 101;

$$

AZZ532-250100-
SOUTHWEST ARIZONA

CITY           SKY/WX    TMP DP  RH WIND       PRES   REMARKS
YUMA           MOSUNNY  108  16   4 W13       29.54F
6HR MIN TEMP:  98; 6HR MAX TEMP: 109;

$$

CAZ041-043-047-048-061-525>527-560>570-250100-
SOUTHERN CALIFORNIA

CITY           SKY/WX    TMP DP  RH WIND       PRES   REMARKS
DOWNTOWN L.A.  SUNNY     68  56  65 VRB3      29.81S
6HR MIN TEMP:  68; 6HR MAX TEMP:  76;

L.A. AIRPORT   PTSUNNY   63  55  75 W16       29.82F
6HR MIN TEMP:  63; 6HR MAX TEMP:  67;

SAN DIEGO      MOSUNNY   67  55  65 W12       29.85F
6HR MIN TEMP:  67; 6HR MAX TEMP:  71;

BURBANK        SUNNY     73  52  47 S12       29.79S
6HR MIN TEMP:  69; 6HR MAX TEMP:  80;

ONTARIO        MOSUNNY   81  48  31 SW15G23   29.78F
6HR MIN TEMP:  72; 6HR MAX TEMP:  86;

RIVERSIDE      SUNNY     82  51  34 W10G23    29.76F
6HR MIN TEMP:  74; 6HR MAX TEMP:  87;

PALM SPRINGS   MOSUNNY  100  37  11 NW20G29   29.58F
6HR MIN TEMP:  99; 6HR MAX TEMP: 105;

EL CENTRO NAS  PTSUNNY  102  21   5 W29G36    29.57F
6HR MIN TEMP:  99; 6HR MAX TEMP: 109;

IMPERIAL       LGT RAIN 101  35  10 W25G37    29.54F
6HR MIN TEMP: 100; 6HR MAX TEMP: 109; 6HR PCP: TRACE;

BLYTHE         MOSUNNY  107  11   3 SW25G33   29.53F
6HR MIN TEMP:  99; 6HR MAX TEMP: 111;

NEEDLES        PTSUNNY  108  14   3 W20G26    29.52F
6HR MIN TEMP: 104; 6HR MAX TEMP: 111;

$$

NVZ020-UTZ003-250100-
SOUTHERN NEVADA-UTAH

CITY           SKY/WX    TMP DP  RH WIND       PRES   REMARKS
LAS VEGAS      PTSUNNY  100   3   3 SW17G28   29.55F
6HR MIN TEMP:  97; 6HR MAX TEMP: 102;

SALT LAKE CITY CLOUDY    82  36  19 S9        29.55F
6HR MIN TEMP:  77; 6HR MAX TEMP:  89; 6HR PCP: TRACE;

$$

NMZ009-TXZ055-250100-
NEW MEXICO-WEST TEXAS

CITY           SKY/WX    TMP DP  RH WIND       PRES   REMARKS
ALBUQUERQUE    MOSUNNY   89  18   7 W24G33    29.78F
6HR MIN TEMP:  72; 6HR MAX TEMP:  89;

EL PASO        SUNNY     94  21   7 W8        29.76F
6HR MIN TEMP:  79; 6HR MAX TEMP:  95;

$$


........................KEY........................
SKY/WX - SKY CONDITION/WEATHER
TMP    - TEMPERATURE IN FAHRENHEIT
DP     - DEW POINT IN FAHRENHEIT
RH     - RELATIVE HUMIDITY IN PERCENT
WIND   - DIRECTION AND SPEED IN MILES PER HOUR (MPH)
VRB    - VARIABLE WIND DIRECTION
PRES   - MEAN SEA LEVEL PRESSURE IN INCHES OF MERCURY
         F - FALLING PRESSURE   R - RISING PRESSURE
         S - STEADY PRESSURE
VSB    - VISIBILITY IN MILES
HX     - HEAT INDEX IN FAHRENHEIT
WCI    - WIND CHILL INDEX IN FAHRENHEIT
TC     - TEMPERATURE IN CELSIUS WHICH IS ALSO KNOWN AS
         TEMPERATURE IN CENTIGRADE
AFB    - AIR FORCE BASE
         LUKE AFB IS LUKE AIR FORCE BASE
         DAVIS-MONTHAN IS DAVIS-MONTHAN AIR FORCE BASE
NAS    - NAVAL AIR STATION
         EL CENTRO NAS IS EL CENTRO NAVAL AIR STATION
N/A    - NOT AVAILABLE




USA.gov is the U.S. government's official web portal to all federal, state and local government web resources and services.